Total_Precipitation_Accumulation
0.77 0.70 0.59 0.61 0.56 0.59 0.65 0.69 0.71 0.70 0.71 0.67 0.65 0.64 0.63 0.58 0.56 0.55 0.67 0.87 1.20 1.34 1.11 0.89 0.71 0.63 0.62 0.59 0.57 0.65 0.69 0.72 0.75 0.76 0.76 0.74 0.76 0.67 0.54 0.44 0.42 0.40 0.43
0.71 0.73 0.68 0.69 0.70 0.68 0.68 0.67 0.65 0.75 0.77 0.72 0.68 0.66 0.62 0.53 0.54 0.61 0.73 0.85 0.90 1.06 1.25 1.19 1.02 0.87 0.74 0.63 0.60 0.59 0.62 0.64 0.65 0.68 0.74 0.71 0.66 0.61 0.52 0.41 0.44 0.40 0.38
0.68 0.73 0.76 0.76 0.77 0.78 0.78 0.79 0.78 0.84 0.78 0.76 0.74 0.67 0.60 0.53 0.52 0.60 0.63 0.70 0.60 0.57 0.81 1.10 1.20 1.10 0.99 0.85 0.72 0.60 0.55 0.54 0.57 0.62 0.70 0.69 0.58 0.54 0.45 0.42 0.43 0.44 0.38
0.70 0.79 0.80 0.83 0.89 0.81 0.79 0.85 0.90 0.93 0.89 0.87 0.85 0.71 0.57 0.57 0.56 0.58 0.63 0.66 0.62 0.47 0.51 0.61 0.73 0.85 1.04 1.10 0.93 0.70 0.57 0.47 0.48 0.57 0.68 0.60 0.49 0.47 0.45 0.46 0.43 0.43 0.41
0.88 0.95 0.99 1.00 1.03 1.04 0.96 0.85 0.88 0.94 1.00 0.98 0.88 0.79 0.65 0.62 0.65 0.63 0.75 0.74 0.67 0.55 0.55 0.45 0.43 0.47 0.62 0.85 0.90 0.84 0.71 0.53 0.45 0.51 0.58 0.53 0.45 0.42 0.40 0.40 0.38 0.35 0.36
1.15 1.25 1.23 1.18 1.23 1.31 1.31 1.10 1.13 1.08 1.02 1.06 0.97 0.89 0.84 0.76 0.76 0.76 0.77 0.80 0.82 0.68 0.64 0.52 0.42 0.30 0.37 0.55 0.71 0.80 0.79 0.64 0.50 0.47 0.50 0.48 0.43 0.42 0.37 0.32 0.33 0.33 0.32
1.49 1.64 1.60 1.58 1.57 1.53 1.49 1.43 1.53 1.48 1.22 1.12 1.26 1.21 1.08 0.91 0.84 0.80 0.78 0.85 0.94 0.89 0.86 0.70 0.58 0.43 0.33 0.34 0.40 0.57 0.74 0.77 0.69 0.62 0.56 0.58 0.50 0.42 0.41 0.38 0.34 0.34 0.35
1.71 1.75 1.93 2.03 1.99 2.07 2.04 1.85 1.95 1.95 1.63 1.39 1.54 1.77 1.50 1.30 0.92 0.80 0.83 0.84 0.93 1.02 1.05 0.89 0.73 0.59 0.49 0.46 0.33 0.38 0.50 0.71 0.82 0.76 0.69 0.67 0.59 0.47 0.41 0.39 0.37 0.36 0.36
1.87 1.89 1.99 2.15 2.16 2.22 2.28 2.34 2.28 2.33 2.11 1.76 1.66 1.87 1.66 1.52 1.32 0.91 0.84 0.95 1.03 1.10 1.15 1.13 0.98 0.78 0.67 0.64 0.49 0.36 0.34 0.39 0.64 0.75 0.75 0.70 0.64 0.54 0.45 0.40 0.39 0.39 0.37
2.06 2.13 2.14 2.24 2.27 2.27 2.34 2.44 2.40 2.47 2.51 2.15 1.89 1.68 1.48 1.43 1.48 1.24 1.00 0.97 1.10 1.13 1.17 1.20 1.15 1.01 0.86 0.81 0.72 0.56 0.38 0.31 0.42 0.67 0.80 0.77 0.67 0.63 0.54 0.47 0.42 0.41 0.43
2.17 2.20 2.26 2.41 2.39 2.35 2.32 2.52 2.55 2.62 2.54 2.46 2.30 2.12 1.96 1.67 1.30 1.34 1.33 1.17 1.10 1.02 1.06 1.19 1.26 1.21 1.06 0.97 0.97 0.78 0.55 0.36 0.36 0.59 0.77 0.89 0.82 0.78 0.70 0.61 0.54 0.50 0.46
2.20 2.09 2.02 2.14 2.20 2.23 2.22 2.38 2.53 2.65 2.62 2.64 2.54 2.24 2.14 1.99 1.60 1.52 1.39 1.28 1.27 1.10 1.03 1.06 1.10 1.12 1.13 1.07 1.02 1.03 0.76 0.51 0.38 0.49 0.67 0.76 0.84 0.89 0.86 0.79 0.75 0.68 0.61
2.02 2.05 1.95 1.94 1.96 1.92 1.95 2.06 2.11 2.18 2.32 2.45 2.35 2.14 2.08 1.91 1.85 1.83 1.71 1.48 1.29 1.08 1.06 1.02 0.99 1.02 1.04 1.04 1.11 1.20 0.87 0.60 0.41 0.37 0.47 0.55 0.64 0.75 0.81 0.86 0.88 0.88 0.85
1.72 1.80 1.80 1.74 1.78 1.83 1.84 1.90 1.90 1.90 1.92 1.98 1.99 2.04 2.08 1.95 1.86 1.76 1.73 1.84 1.61 1.37 1.20 1.06 1.02 1.04 1.03 1.02 1.18 1.24 0.90 0.73 0.52 0.40 0.36 0.38 0.44 0.55 0.67 0.77 0.88 0.98 0.99
1.28 1.34 1.44 1.51 1.60 1.65 1.71 1.84 1.89 1.88 1.83 1.80 1.89 1.95 1.89 1.85 1.82 1.70 1.64 1.70 1.76 1.62 1.47 1.26 1.15 1.07 1.11 1.10 1.21 1.00 0.88 0.83 0.66 0.55 0.47 0.39 0.38 0.43 0.48 0.58 0.70 0.75 0.81
0.94 1.00 1.11 1.28 1.50 1.62 1.65 1.72 1.76 1.83 1.85 1.79 1.88 1.98 1.97 1.97 2.00 1.90 1.76 1.70 1.64 1.63 1.54 1.32 1.12 1.01 1.16 1.10 1.22 1.02 0.95 1.02 0.82 0.67 0.56 0.49 0.44 0.44 0.43 0.42 0.48 0.50 0.51
0.78 0.89 0.95 1.09 1.24 1.42 1.60 1.74 1.74 1.73 1.75 1.74 1.69 1.77 1.87 1.97 2.08 2.09 2.05 1.89 1.75 1.71 1.60 1.43 1.22 1.05 1.17 1.22 1.19 1.13 1.03 0.91 0.84 0.77 0.66 0.60 0.55 0.48 0.47 0.46 0.44 0.44 0.43
0.62 0.71 0.84 1.05 1.16 1.24 1.29 1.37 1.44 1.47 1.48 1.51 1.50 1.46 1.56 1.67 1.81 1.96 2.02 1.96 1.94 1.84 1.73 1.67 1.50 1.24 1.11 1.15 1.19 1.26 1.17 1.00 0.92 0.95 0.86 0.74 0.66 0.58 0.52 0.47 0.44 0.41 0.40
0.61 0.66 0.80 0.95 1.01 1.06 1.09 1.11 1.21 1.28 1.29 1.26 1.30 1.27 1.28 1.38 1.52 1.64 1.73 1.81 1.92 1.96 1.92 1.82 1.71 1.51 1.26 1.23 1.28 1.28 1.27 1.30 1.12 1.04 1.03 0.97 0.87 0.78 0.71 0.62 0.53 0.46 0.42
0.62 0.69 0.84 0.94 0.95 0.91 1.00 1.03 1.08 1.10 1.07 1.03 1.06 1.06 1.10 1.13 1.20 1.31 1.46 1.67 1.85 1.95 1.99 1.97 1.88 1.64 1.45 1.40 1.37 1.36 1.40 1.42 1.37 1.20 1.11 1.06 1.08 0.99 0.86 0.75 0.66 0.56 0.52
0.64 0.71 0.76 0.87 0.92 0.90 0.93 0.99 0.98 0.90 0.89 0.89 0.85 0.77 0.79 0.84 0.85 0.93 0.99 1.26 1.51 1.70 1.81 1.88 1.85 1.68 1.47 1.37 1.27 1.30 1.39 1.51 1.54 1.48 1.39 1.19 1.12 1.06 1.00 0.90 0.79 0.68 0.59
0.53 0.58 0.64 0.80 0.91 0.82 0.93 0.92 0.84 0.77 0.73 0.77 0.74 0.68 0.66 0.70 0.62 0.59 0.62 0.84 1.12 1.30 1.46 1.63 1.69 1.55 1.43 1.34 1.37 1.37 1.35 1.35 1.35 1.28 1.26 1.30 1.23 1.14 1.05 0.98 0.97 0.89 0.80
0.47 0.52 0.56 0.73 0.82 0.90 0.85 0.69 0.73 0.73 0.73 0.75 0.77 0.79 0.72 0.68 0.75 0.66 0.60 0.67 0.76 0.87 1.01 1.24 1.45 1.45 1.55 1.47 1.35 1.29 1.28 1.28 1.25 1.28 1.24 1.23 1.19 1.11 1.01 0.97 1.05 0.98 0.93
0.44 0.49 0.55 0.59 0.67 0.80 0.74 0.59 0.63 0.62 0.72 0.80 0.83 0.92 0.93 0.86 0.83 0.89 0.83 0.84 0.82 0.76 0.83 0.74 0.93 1.29 1.43 1.48 1.41 1.40 1.46 1.35 1.25 1.25 1.20 1.18 1.18 1.11 0.98 0.91 0.94 0.86 0.80
0.48 0.50 0.55 0.58 0.64 0.68 0.64 0.57 0.60 0.66 0.79 0.82 0.78 0.89 0.92 0.85 0.90 0.96 1.06 1.10 1.02 0.89 1.03 1.04 0.95 1.04 1.16 1.21 1.29 1.33 1.36 1.28 1.23 1.18 1.04 0.96 0.94 0.98 1.00 0.94 0.91 0.91 0.82
0.46 0.48 0.47 0.47 0.52 0.54 0.59 0.50 0.60 0.72 0.78 0.79 0.80 0.85 0.99 0.90 0.87 0.86 0.93 1.05 1.03 0.92 0.81 0.85 0.82 0.72 0.67 0.77 0.95 1.08 1.30 1.37 1.29 1.18 1.03 0.93 0.93 0.90 0.91 0.85 0.78 0.79 0.78